Lid_Strength_Index
16 18 21 19 14 14 15 17 18 16 14 17 19 19 19 18 18 17 18 17 16 16 16 15 15 15 15 16 16 16 16 15 15 15 16 16 16 15 15 14 14 13 13 13
19 21 18 15 15 14 16 18 18 16 14 16 18 19 17 17 17 16 16 16 15 15 15 15 15 14 14 15 15 15 14 14 14 14 15 14 14 14 13 12 12 12 12 12
21 19 16 16 18 16 17 17 18 17 16 16 18 19 18 16 16 15 15 15 15 15 15 14 14 14 13 13 13 13 12 12 12 11 11 12 11 12 12 11 11 11 10 10
20 17 16 18 19 18 19 16 15 16 18 22 16 23 19 17 17 16 16 16 15 15 14 14 14 14 13 13 12 12 12 12 11 11 12 12 13 13 13 12 12 11 11 11
21 20 20 19 19 17 18 16 16 15 18 20 19 24 18 17 18 17 16 16 16 15 15 15 14 13 13 12 13 12 12 12 11 11 12 13 13 13 12 12 13 12 12 11
21 18 19 19 17 16 15 17 17 17 19 24 21 22 21 19 17 16 15 15 15 15 14 14 14 13 13 13 12 12 12 12 12 12 12 12 13 13 13 13 13 13 12 12
21 21 19 18 20 17 17 19 26 26 26 25 21 24 21 16 14 14 15 14 15 14 14 14 14 14 14 14 13 12 12 12 12 12 12 12 12 13 13 13 13 13 13 13
22 22 21 19 21 20 20 20 25 31 26 24 21 26 20 15 13 13 13 14 14 14 14 14 14 14 15 14 14 13 13 13 12 12 12 12 12 13 13 13 13 13 13 13
23 22 20 19 19 19 20 21 20 29 36 29 23 20 18 16 16 15 14 15 14 14 14 15 15 14 15 14 14 14 14 13 13 12 13 13 13 13 13 13 13 13 13 12
20 24 21 20 20 20 20 19 23 26 30 31 24 23 22 19 18 16 15 15 15 14 14 14 15 15 14 14 14 14 13 13 13 13 13 12 13 12 13 13 13 13 12 12
20 21 22 21 22 22 23 23 23 23 25 30 30 23 19 18 18 17 15 15 15 14 14 14 14 14 14 14 14 14 14 14 13 13 13 13 12 12 12 12 13 13 12 12
19 23 28 24 22 21 21 21 22 27 27 27 25 24 17 16 16 17 16 15 14 14 14 14 14 14 14 14 14 14 14 14 13 13 13 12 12 12 12 13 13 12 12 12
20 25 31 25 22 22 24 21 21 25 27 30 28 24 17 18 18 16 16 15 14 14 15 14 14 14 14 15 15 14 14 14 13 13 13 12 12 13 13 13 12 12 12 12
18 24 25 24 23 24 26 24 24 27 31 26 24 22 19 19 19 18 17 16 15 15 15 15 15 15 15 15 15 14 14 13 13 13 13 13 13 13 13 12 12 12 12 12
22 26 26 26 24 24 23 22 23 25 23 25 22 22 17 18 18 18 17 17 16 16 15 15 15 16 15 15 15 14 13 13 13 13 13 13 13 12 12 12 12 12 12 13
21 28 28 30 27 24 24 23 22 22 21 23 22 23 17 18 18 18 18 17 17 16 16 15 15 16 15 15 14 14 13 13 13 13 13 13 13 13 13 12 12 12 13 13
25 28 30 31 29 32 29 26 22 21 22 21 24 19 19 19 19 18 18 17 16 16 16 16 16 15 15 15 14 14 13 13 13 13 13 13 13 13 13 12 13 13 15 14
28 28 31 33 33 30 21 22 20 21 19 20 20 20 19 18 18 17 17 17 17 16 16 16 16 15 14 14 14 13 13 13 13 13 13 13 13 13 13 13 14 14 15 15
22 26 31 29 32 24 22 23 22 22 21 19 19 17 18 18 19 18 16 16 16 17 15 15 14 14 14 14 13 13 13 13 14 14 14 13 13 13 14 16 16 15 15 15
24 27 28 34 31 29 23 22 21 20 22 17 18 18 18 18 21 17 16 15 15 16 18 15 14 14 14 14 14 13 14 15 15 15 15 15 15 15 17 17 17 16 15 15
31 32 27 33 31 27 22 21 20 24 19 18 18 17 19 18 17 17 16 16 15 16 16 16 16 14 14 16 15 16 16 16 15 16 16 18 17 18 18 18 17 17 16 15
27 28 30 33 34 26 20 21 21 18 18 17 19 19 18 17 17 17 16 16 15 17 17 16 17 16 15 16 15 16 17 16 17 18 20 20 20 19 18 19 19 17 16 17
25 23 25 23 22 20 19 18 18 18 18 18 18 18 17 17 18 17 17 16 16 15 16 18 17 17 16 17 15 16 16 19 20 21 21 21 20 19 18 19 18 18 16 16
23 21 23 22 20 20 20 18 19 18 18 18 18 18 17 18 17 17 17 16 16 15 15 17 16 18 17 19 17 16 20 19 20 22 22 21 20 20 20 16 15 16 17 17
21 21 22 21 21 19 20 18 16 19 18 18 17 17 17 17 17 16 16 16 16 15 15 15 15 14 15 17 18 21 19 19 20 22 21 20 19 19 18 17 16 14 14 13
20 21 21 20 19 17 18 17 16 18 18 17 18 18 17 17 17 16 16 16 15 15 15 15 15 17 18 20 21 23 23 21 22 20 20 21 20 20 18 17 18 13 12 11